Theta_e
356 357 357 344 319 318 314 319 326 322 326 331 335 332 326 324 326 314 338 344 348 353 358 360 365 365 363 363 364 364 364 364 362 361 361 361 361 362 361 358 360 360 361 362 361 361 361 360 359
355 357 341 329 313 309 313 323 322 325 330 333 331 328 321 317 328 335 336 347 351 354 357 358 365 365 362 363 362 363 364 364 363 361 361 361 361 362 360 356 360 361 361 361 360 361 359 357 357
353 346 326 321 317 311 313 324 325 330 334 334 331 331 321 324 333 336 343 348 351 352 356 357 364 364 363 364 364 363 362 362 362 362 361 362 362 357 357 358 361 360 361 360 359 358 360 360 359
349 337 330 317 313 320 321 325 329 330 333 334 328 316 320 332 334 339 346 348 347 350 354 362 363 363 363 364 362 362 362 363 361 362 362 360 360 361 362 360 362 362 361 361 361 358 356 359 359
343 332 318 318 318 323 325 328 328 327 330 329 322 316 316 332 341 342 345 346 344 350 356 358 365 364 363 362 363 361 362 361 361 361 363 360 358 362 361 361 362 360 361 359 360 359 357 358 358
325 328 313 312 319 324 327 328 328 330 331 330 322 319 317 336 338 341 343 343 348 351 357 358 363 364 363 363 362 361 363 361 362 362 362 362 361 362 363 362 360 361 358 359 359 359 358 359 356
326 322 314 317 318 321 326 331 327 329 329 329 327 315 319 331 337 340 342 348 351 353 356 355 357 359 364 363 362 362 362 362 363 363 364 362 360 361 362 361 361 360 359 360 360 358 358 358 357
333 327 321 320 315 316 328 330 331 330 329 335 330 318 316 326 337 343 348 348 348 351 353 354 354 355 354 356 362 364 361 362 362 363 364 363 362 361 361 364 361 360 359 357 356 357 359 358 359
339 319 316 320 317 321 330 327 333 333 331 333 333 329 326 330 346 346 344 345 346 348 351 353 354 353 352 354 359 361 361 362 363 362 362 363 354 355 358 361 362 361 359 359 359 358 358 359 359
327 320 322 327 325 321 329 329 328 327 328 327 331 330 328 332 345 343 341 342 344 345 349 352 353 352 351 357 355 351 353 355 355 354 354 355 353 352 356 359 362 361 361 361 360 360 360 359 352
327 317 325 328 330 329 329 328 329 325 321 324 327 326 327 328 342 341 342 343 344 346 349 349 350 350 350 352 352 352 348 350 352 352 352 353 355 353 355 353 355 354 359 354 356 356 356 354 351
322 327 328 330 329 330 329 330 326 325 325 331 332 329 329 328 329 334 340 339 341 343 346 347 352 350 350 351 352 351 348 347 350 353 351 351 351 349 350 351 353 352 353 352 352 351 351 351 350
322 327 329 330 329 329 331 327 326 324 331 335 333 332 330 329 329 335 339 340 340 342 345 348 351 350 350 350 351 351 348 347 348 351 350 347 349 350 349 350 352 351 354 352 350 351 350 350 351
327 326 325 327 325 327 328 327 329 329 333 333 332 330 331 330 332 334 335 337 340 343 344 349 350 350 349 349 350 350 349 348 346 349 349 349 350 348 348 348 350 349 351 352 349 351 347 347 350
326 320 323 324 325 325 328 323 324 330 332 331 330 331 332 332 333 333 334 340 342 344 346 348 348 349 349 347 346 348 349 351 347 350 348 347 351 349 351 351 350 350 351 351 350 349 349 349 351
319 319 312 323 325 325 322 314 324 328 329 329 330 331 332 332 333 333 334 340 342 343 345 347 350 348 347 345 347 347 348 349 348 348 346 350 352 351 351 351 351 351 351 353 352 350 346 347 343
318 310 314 317 326 324 320 316 325 327 325 327 328 329 330 331 332 333 336 340 341 343 345 345 346 348 345 343 345 346 348 346 349 348 349 353 350 354 353 350 351 349 348 349 351 350 350 346 341
312 311 314 313 320 324 319 319 324 326 326 326 327 327 329 329 331 334 337 339 342 344 345 345 344 346 344 342 344 344 346 349 352 351 350 352 353 353 351 352 352 350 348 349 350 349 350 350 345
315 313 312 317 322 319 318 318 320 322 326 326 325 326 327 329 333 335 338 340 340 342 344 344 343 342 344 341 339 338 340 347 348 350 354 353 354 356 354 354 352 351 349 349 351 350 348 347 348
315 312 312 315 319 320 319 317 321 321 324 327 326 327 328 330 331 333 336 338 339 339 342 344 344 342 345 343 340 341 345 348 348 351 354 354 357 356 357 357 352 352 351 351 351 348 348 346 351
315 313 312 311 315 320 319 313 318 322 325 326 329 330 330 330 331 332 335 337 339 339 340 342 344 344 345 343 342 345 346 346 346 350 352 353 353 354 352 353 354 352 351 350 350 348 349 344 347
308 316 315 313 305 300 313 301 312 317 319 322 324 326 329 331 333 333 334 335 339 341 342 342 345 344 345 345 342 343 344 341 345 348 352 353 351 353 353 354 356 352 353 352 351 352 351 348 343
314 317 313 313 305 299 306 303 308 315 315 318 322 324 329 332 333 333 334 336 340 342 342 341 346 343 346 345 344 343 343 345 347 348 349 352 355 355 357 356 355 352 352 353 354 354 352 352 349
318 311 305 302 299 295 304 302 304 308 311 317 321 323 328 331 333 335 337 338 340 342 342 341 345 342 346 347 347 344 345 345 343 345 349 350 351 353 352 357 356 354 353 353 354 352 355 355 355
303 296 292 292 292 294 301 302 304 313 317 316 318 322 325 326 332 334 336 337 340 340 341 341 340 344 344 346 348 349 346 347 344 343 345 348 349 349 351 352 356 356 355 354 355 354 356 357 356
299 297 293 290 290 293 300 298 304 313 317 320 320 322 327 327 329 334 336 337 338 342 342 342 340 340 345 345 344 348 350 350 347 347 351 348 351 351 352 351 356 357 356 355 355 353 355 358 356
300 297 300 295 292 292 295 303 309 315 316 319 320 322 326 328 328 334 337 337 338 343 344 343 341 342 343 344 343 345 348 351 350 347 349 350 347 348 348 350 351 356 358 356 356 355 355 355 356
300 302 294 296 289 287 293 294 298 307 312 315 321 323 325 330 326 334 336 337 338 342 345 345 344 343 345 345 345 344 346 349 354 351 348 349 350 349 350 349 351 354 357 358 355 353 356 354 354
298 295 293 293 291 288 287 293 306 310 312 315 320 323 328 330 331 332 335 338 339 342 344 346 346 345 347 347 348 348 346 348 350 354 353 350 349 347 352 354 352 352 355 357 355 355 356 354 354
299 295 292 289 289 289 289 293 306 313 315 318 323 321 323 327 332 331 332 336 337 340 343 345 347 347 350 350 352 351 352 353 350 351 354 351 351 348 351 355 356 355 354 354 357 357 357 355 353
Wind_Speed
4 3 1 2 5 5 1 4 3 5 2 4 8 4 8 7 2 3 12 13 18 15 13 13 15 15 14 13 12 14 13 12 11 10 10 11 11 11 10 11 10 11 9 10 11 11 11 11 11
4 3 4 2 6 3 4 4 7 6 7 12 11 5 6 5 5 15 9 17 19 15 11 11 14 14 15 14 13 12 12 13 10 11 10 10 10 10 10 10 9 11 9 9 9 9 11 10 9
8 8 5 4 2 3 4 3 7 16 16 10 6 4 4 6 13 12 14 18 17 13 10 11 15 14 15 14 13 13 12 12 10 11 10 11 11 11 11 10 9 10 8 9 10 9 9 9 8
2 4 4 5 3 10 12 4 5 11 15 11 13 7 6 4 6 10 19 18 16 11 9 14 16 16 15 14 13 12 12 12 10 11 10 11 11 11 11 10 8 9 9 7 9 9 9 8 8
4 3 4 4 8 7 5 4 7 11 7 11 9 5 11 3 18 23 19 17 17 12 10 12 15 15 15 14 13 13 12 12 11 11 11 12 11 10 11 10 8 9 8 8 7 8 8 8 6
5 3 3 3 8 10 5 12 14 11 13 12 13 9 3 19 24 19 19 18 16 16 12 11 15 15 15 15 14 13 11 12 12 11 11 10 10 9 10 9 7 7 7 7 7 7 6 7 6
5 1 4 5 5 5 4 9 4 14 13 8 12 7 6 16 18 18 17 16 15 14 12 10 10 12 15 14 14 14 12 12 12 11 11 10 10 10 10 9 7 6 6 6 6 5 5 5 6
5 3 3 4 4 7 1 10 6 9 5 16 10 7 15 14 20 17 16 16 14 13 11 9 8 7 6 7 14 14 13 12 12 11 10 10 9 9 9 7 7 6 6 5 4 5 6 7 8
3 3 4 2 6 8 6 5 4 3 11 12 2 9 19 18 23 19 16 13 11 10 10 9 9 8 7 6 8 12 14 12 11 10 10 8 4 5 7 7 7 6 6 7 7 6 7 8 10
3 3 6 3 8 15 12 11 8 6 4 3 4 13 15 19 22 21 17 15 13 13 12 10 9 9 8 7 6 6 6 4 4 4 4 3 4 3 5 6 8 7 7 6 5 7 7 8 3
4 6 8 23 18 16 16 4 3 5 4 6 21 21 18 15 21 21 19 21 19 17 12 12 10 10 9 7 4 3 2 3 3 5 5 4 3 2 2 2 1 2 6 1 2 4 2 3 4
3 14 16 13 12 18 12 12 6 7 5 9 24 24 20 16 20 21 19 17 16 16 15 14 12 11 8 5 5 5 4 4 3 5 6 4 3 3 4 3 3 3 3 3 3 3 3 5 3
5 5 10 18 18 6 16 11 9 11 6 16 21 20 18 16 13 16 21 18 18 17 15 15 13 12 8 8 6 5 5 5 5 3 4 4 4 4 4 3 4 4 3 3 4 3 3 4 5
5 15 18 11 10 4 11 8 9 7 15 15 19 17 16 13 9 13 16 18 19 17 17 16 14 12 10 9 8 7 5 5 4 4 5 6 4 4 4 4 3 4 4 3 3 5 2 4 4
8 9 11 5 3 3 3 6 1 14 15 16 14 14 14 8 9 13 13 19 19 16 17 16 15 14 13 11 9 7 6 6 5 6 7 7 6 6 5 2 2 2 3 6 4 3 4 3 4
8 4 7 6 8 4 10 4 6 7 14 15 14 14 13 10 10 9 9 17 16 16 16 15 14 14 12 10 8 5 5 6 6 5 4 6 6 6 6 4 2 2 2 3 2 2 2 2 4
7 3 12 11 6 5 13 5 9 9 5 16 16 16 14 12 10 8 12 16 15 18 17 16 15 13 13 8 6 5 4 5 6 4 5 6 6 5 4 3 2 1 1 2 2 2 1 2 3
3 6 12 12 7 8 10 10 13 14 15 16 18 16 16 15 15 11 10 13 16 16 17 16 12 11 10 6 4 3 3 3 4 5 6 7 5 6 4 3 2 1 0 3 2 2 1 2 3
7 16 18 19 27 10 11 10 10 8 3 16 17 17 17 17 15 12 11 16 17 15 15 14 10 8 7 3 3 2 3 1 2 4 7 7 6 6 5 3 3 3 3 4 4 2 1 3 2
15 18 22 16 11 6 9 10 11 6 9 14 20 18 19 16 14 15 14 17 18 16 15 13 13 11 8 5 4 3 3 2 2 4 7 8 7 7 5 5 4 4 3 5 3 1 1 1 1
12 17 22 9 14 7 10 5 11 8 9 8 9 16 16 19 19 18 16 16 17 17 16 14 15 14 10 8 4 3 3 3 3 2 3 6 7 6 6 7 5 4 4 4 3 2 3 1 2
11 17 15 12 4 7 6 6 6 7 14 10 15 13 18 19 19 19 17 17 18 18 17 15 15 15 11 11 8 6 5 4 4 5 4 6 6 7 7 7 6 6 4 2 3 3 3 3 2
15 15 10 14 8 4 5 6 8 12 15 17 19 14 24 23 22 23 22 19 20 18 17 16 15 16 14 13 11 7 5 4 3 4 8 8 8 7 7 7 7 6 4 5 5 4 4 3 2
18 8 6 3 4 3 7 3 7 7 11 7 14 14 18 19 19 22 22 18 17 18 18 16 15 15 15 14 11 10 9 7 4 2 5 6 5 7 7 7 6 7 6 5 5 4 5 4 3
5 3 5 5 5 7 6 1 10 8 11 9 11 15 11 9 19 19 21 19 17 20 20 17 17 15 15 15 12 10 10 8 8 7 5 5 5 4 7 6 6 5 6 6 5 5 5 4 2
7 7 7 7 5 7 3 6 8 3 8 12 4 9 5 9 16 20 23 21 20 22 21 20 19 17 16 16 15 12 10 5 6 6 5 5 6 7 9 7 6 7 7 6 6 3 4 4 4
9 9 6 4 2 3 4 8 9 6 8 5 8 7 13 19 19 25 24 22 20 20 22 22 20 18 17 18 14 14 12 9 7 8 5 5 5 4 6 7 8 8 9 8 6 4 5 4 4
5 6 10 6 2 3 6 3 7 1 5 5 1 8 12 16 6 20 21 23 20 20 22 21 20 21 20 18 15 13 14 12 9 6 8 7 6 7 7 7 9 10 10 8 6 4 4 5 4
12 7 5 2 4 1 4 7 8 9 6 10 9 13 10 7 9 7 11 20 22 19 20 21 19 19 16 16 15 14 13 13 12 9 8 8 6 7 8 7 8 10 10 7 6 6 6 7 5
4 5 5 6 8 2 6 8 8 10 8 16 10 6 13 14 4 7 14 17 19 18 20 21 20 18 18 18 16 16 13 13 13 14 10 8 9 6 8 7 8 8 9 7 8 8 7 7 6
Wind_Direction
243 214 147 34 56 64 303 287 217 155 57 39 95 139 118 36 141 184 137 138 137 144 151 150 148 146 141 133 133 141 140 138 130 124 124 123 122 125 123 117 120 126 124 121 122 119 120 130 126
253 192 48 67 74 67 276 234 148 184 134 102 70 51 50 101 61 114 106 140 140 140 145 146 146 144 141 141 140 136 128 133 134 129 130 130 131 135 122 127 130 127 128 128 123 130 125 130 137
92 61 61 66 80 245 221 220 157 134 147 126 118 94 76 104 104 130 133 139 137 137 137 149 147 148 143 147 142 136 130 130 136 138 138 137 133 130 131 131 134 134 144 137 135 129 130 136 132
15 30 59 69 287 262 256 220 170 154 112 97 122 74 62 167 115 134 138 137 133 134 139 150 152 150 148 143 140 137 136 133 138 148 146 129 135 140 133 128 129 140 143 130 127 130 137 138 137
30 47 61 92 287 281 242 76 348 105 86 114 119 99 125 74 127 135 139 142 136 142 150 151 156 152 149 146 143 140 145 136 142 146 145 138 144 137 133 138 141 141 133 137 148 142 142 147 147
38 53 30 228 216 233 144 137 234 112 126 111 98 105 124 141 138 148 147 146 144 150 154 161 158 156 152 149 144 144 141 144 150 146 148 144 146 145 143 142 148 144 146 148 145 143 153 160 169
88 96 219 276 266 263 112 81 353 117 123 125 125 111 134 152 146 149 146 138 145 148 152 159 158 159 157 151 151 151 154 155 156 156 155 145 155 147 150 153 160 162 156 155 158 158 171 180 196
126 135 235 211 352 306 179 127 155 115 110 104 131 155 167 163 156 139 139 140 144 148 157 164 159 148 153 157 159 157 159 164 159 161 154 154 157 162 166 163 173 174 174 178 187 197 203 216 220
58 9 267 240 54 293 208 134 165 82 134 151 221 156 161 135 134 136 137 132 140 155 167 171 166 154 154 155 169 164 166 168 171 167 165 167 160 175 183 175 197 193 197 202 205 218 238 245 244
130 238 280 14 206 205 218 169 153 143 159 222 120 136 160 132 144 147 150 153 163 166 179 180 168 163 160 166 163 167 174 165 157 169 177 160 188 198 195 201 202 221 228 231 235 235 238 257 260
173 245 259 280 242 213 192 160 110 122 203 200 153 157 169 154 158 156 164 165 174 178 175 179 172 169 168 165 155 167 166 172 185 187 191 189 199 214 238 224 195 192 231 200 280 289 285 245 265
202 233 240 280 311 174 179 138 158 180 234 168 157 162 168 176 165 165 171 167 170 177 178 174 174 170 176 151 167 176 174 185 198 203 193 179 206 197 220 194 210 206 228 205 227 268 272 277 270
220 279 296 300 297 200 142 180 170 202 149 142 153 163 174 182 176 160 173 169 174 175 176 175 172 173 170 167 174 179 189 191 207 192 194 179 204 206 219 194 200 197 228 233 214 258 256 275 59
293 306 288 285 276 172 176 173 161 185 149 140 161 172 177 186 180 165 169 167 174 172 174 172 174 176 169 176 181 185 180 193 196 195 191 203 199 201 225 204 186 196 209 219 209 227 228 270 148
266 308 312 358 285 20 96 70 77 142 154 152 168 179 184 193 179 182 172 169 172 175 173 170 173 175 176 181 186 187 191 187 197 203 188 202 196 173 167 130 131 197 184 211 211 238 224 226 185
333 82 351 327 23 38 27 44 333 61 161 172 166 180 188 208 204 201 180 168 170 168 175 167 176 180 181 180 186 169 187 189 207 195 177 189 175 172 148 144 152 143 38 322 257 265 279 132 149
9 350 320 330 5 72 62 283 147 132 145 169 178 180 187 212 221 215 181 173 164 168 164 171 169 170 176 177 179 156 161 185 195 170 164 189 167 161 144 151 175 260 307 319 289 270 208 73 147
285 292 284 274 264 76 135 235 179 168 156 194 181 187 189 199 217 209 177 168 163 165 168 172 166 167 163 165 151 124 132 214 157 178 172 163 173 172 165 154 200 254 46 317 284 261 292 228 169
310 276 264 266 272 229 166 212 207 197 179 176 198 191 194 200 197 191 168 162 165 163 167 171 160 174 153 141 138 145 157 113 158 178 158 175 182 177 177 179 204 210 223 251 242 261 355 351 154
244 266 283 279 292 166 161 212 220 225 226 190 189 200 197 193 189 181 168 166 170 168 170 169 174 166 170 158 158 148 146 165 171 181 179 186 179 180 180 181 205 215 215 260 240 238 2 313 186
239 223 255 247 312 93 119 331 258 227 226 229 202 205 204 189 185 184 175 164 173 175 171 170 177 174 174 174 138 104 85 85 113 182 168 201 189 184 193 188 197 208 209 232 230 222 198 204 306
262 208 249 302 353 161 193 228 285 247 231 240 217 202 205 197 187 185 183 169 172 179 175 168 173 172 177 174 173 159 158 169 200 177 188 195 195 195 189 192 194 202 202 207 247 209 225 153 223
253 289 278 286 271 64 326 97 243 217 235 221 220 224 201 194 185 186 189 183 174 170 177 174 171 175 176 178 178 173 168 191 205 178 180 197 199 195 193 193 193 202 202 215 223 237 201 197 171
258 283 300 12 87 47 240 134 281 204 225 195 190 204 185 195 194 191 190 182 176 173 176 177 175 180 174 178 178 176 181 194 202 205 188 194 196 198 196 195 195 200 205 206 213 214 221 220 212
207 98 305 337 4 221 197 185 235 269 239 231 187 184 178 176 196 188 187 185 175 177 182 181 180 182 182 182 181 177 188 193 195 188 197 187 186 190 210 194 199 204 209 209 209 211 219 212 206
287 167 162 211 202 240 67 240 260 219 249 232 342 91 88 212 185 193 189 186 181 183 184 185 185 186 185 187 192 194 189 187 196 196 182 197 196 202 205 203 199 204 207 212 206 209 221 204 224
319 354 230 160 80 95 233 293 324 18 30 65 111 111 22 340 192 187 188 188 185 184 187 188 186 189 188 193 195 198 198 193 200 209 195 189 190 209 197 197 202 210 209 207 199 203 214 209 234
90 283 358 357 336 282 283 288 236 299 174 167 98 72 50 0 198 178 184 188 188 188 188 188 187 186 190 190 192 198 198 200 202 198 208 196 203 204 196 205 213 215 213 204 191 187 202 199 230
349 6 10 140 86 322 305 274 226 210 234 108 87 82 64 32 20 28 216 193 192 184 186 190 188 188 187 191 193 195 198 201 203 203 206 207 208 195 209 209 211 214 207 192 185 194 203 206 218
217 113 94 87 306 256 165 279 360 288 230 117 121 119 108 11 80 351 313 225 191 184 190 188 187 187 189 190 189 195 195 194 202 208 207 197 213 202 210 208 207 205 205 187 189 200 202 206 204